Radiation Dose at Monitoring Post of Fukushima Daini Nuclear Power Station
Date,Time,MP-1(microSv/h),MP-2(microSv/h),MP-3(microSv/h),MP-4(microSv/h),MP-5(microSv/h),MP-6(microSv/h),MP-7(microSv/h),Wind Direction,Wind Velocity(m/s),Rain
2013/11/04,00:00,0.8,0.6,0.8,0.8,0.7,0.4,0.3,south-southwest,4.3,Yes
2013/11/04,00:10,0.8,0.6,0.8,0.8,0.7,0.4,0.3,south-southwest,3.2,Yes
2013/11/04,00:20,0.8,0.6,0.8,0.8,0.7,0.4,0.3,southwest,3.0,Yes
2013/11/04,00:30,0.8,0.6,0.8,0.8,0.7,0.4,0.3,west-southwest,2.5,Yes
2013/11/04,00:40,0.8,0.5,0.8,0.8,0.7,0.4,0.3,west,3.5,No
2013/11/04,00:50,0.8,0.5,0.8,0.8,0.7,0.4,0.3,west,3.6,Yes
2013/11/04,01:00,0.8,0.6,0.8,0.8,0.7,0.4,0.3,west,3.5,Yes
2013/11/04,01:10,0.8,0.6,0.8,0.8,0.7,0.4,0.3,west-northwest,2.8,Yes
2013/11/04,01:20,0.8,0.5,0.8,0.8,0.7,0.4,0.3,west-northwest,2.5,Yes
2013/11/04,01:30,0.8,0.6,0.8,0.8,0.7,0.4,0.3,west-southwest,1.9,Yes
2013/11/04,01:40,0.8,0.5,0.8,0.8,0.7,0.4,0.3,-,CALM,Yes
2013/11/04,01:50,0.8,0.5,0.8,0.8,0.7,0.4,0.3,-,CALM,Yes
2013/11/04,02:00,0.8,0.5,0.8,0.8,0.7,0.4,0.3,-,CALM,No
2013/11/04,02:10,0.8,0.5,0.8,0.8,0.7,0.4,0.3,north-northwest,2.1,No
2013/11/04,02:20,0.8,0.5,0.8,0.8,0.7,0.4,0.3,north-northwest,3.6,No
2013/11/04,02:30,0.8,0.5,0.8,0.8,0.7,0.4,0.3,north-northwest,4.2,No
2013/11/04,02:40,0.8,0.5,0.8,0.8,0.7,0.4,0.3,north-northwest,3.8,No
2013/11/04,02:50,0.8,0.5,0.8,0.8,0.7,0.4,0.3,north,4.6,Yes
2013/11/04,03:00,0.8,0.5,0.8,0.8,0.7,0.4,0.3,north-northwest,5.1,Yes
2013/11/04,03:10,0.8,0.5,0.8,0.8,0.7,0.4,0.3,north-northwest,3.3,Yes
2013/11/04,03:20,0.8,0.5,0.8,0.8,0.7,0.4,0.3,north-northwest,2.5,Yes
2013/11/04,03:30,0.8,0.5,0.8,0.8,0.7,0.4,0.3,west,1.0,Yes
2013/11/04,03:40,0.8,0.5,0.8,0.8,0.7,0.4,0.3,northwest,2.4,Yes
2013/11/04,03:50,0.8,0.6,0.8,0.8,0.7,0.4,0.3,north-northwest,4.5,Yes
2013/11/04,04:00,0.8,0.6,0.8,0.8,0.7,0.4,0.3,north,6.2,Yes
2013/11/04,04:10,0.8,0.6,0.8,0.8,0.7,0.4,0.3,north,6.4,Yes
2013/11/04,04:20,0.8,0.6,0.8,0.8,0.7,0.4,0.3,north,6.1,Yes
2013/11/04,04:30,0.8,0.6,0.8,0.8,0.8,0.4,0.3,north,5.0,Yes
2013/11/04,04:40,0.8,0.6,0.8,0.8,0.7,0.4,0.3,north,4.5,Yes
2013/11/04,04:50,0.8,0.6,0.8,0.8,0.7,0.4,0.3,north,5.0,Yes
2013/11/04,05:00,0.8,0.6,0.8,0.8,0.7,0.4,0.3,north-northwest,4.8,Yes
2013/11/04,05:10,0.8,0.6,0.8,0.8,0.7,0.4,0.3,north,5.0,Yes
2013/11/04,05:20,0.8,0.6,0.8,0.8,0.7,0.4,0.3,north-northwest,5.6,Yes
2013/11/04,05:30,0.8,0.6,0.8,0.8,0.7,0.4,0.3,north,6.4,Yes
2013/11/04,05:40,0.8,0.6,0.8,0.8,0.7,0.4,0.3,north,6.4,Yes
2013/11/04,05:50,0.8,0.6,0.8,0.8,0.7,0.4,0.3,north,7.0,Yes
2013/11/04,06:00,0.8,0.5,0.8,0.8,0.7,0.4,0.3,north,6.5,Yes
2013/11/04,06:10,0.8,0.5,0.8,0.8,0.7,0.4,0.3,north,6.7,Yes
2013/11/04,06:20,0.8,0.5,0.8,0.8,0.7,0.4,0.3,north,6.0,Yes
2013/11/04,06:30,0.8,0.5,0.8,0.8,0.7,0.4,0.3,north,7.0,Yes
2013/11/04,06:40,0.8,0.5,0.8,0.8,0.7,0.4,0.3,north,8.5,Yes
2013/11/04,06:50,0.8,0.5,0.8,0.8,0.7,0.4,0.3,north,8.6,No
2013/11/04,07:00,0.8,0.5,0.8,0.8,0.7,0.4,0.3,north,8.6,No
2013/11/04,07:10,0.8,0.5,0.8,0.8,0.7,0.4,0.3,north-northwest,8.0,No
2013/11/04,07:20,0.8,0.5,0.8,0.8,0.7,0.4,0.3,north-northwest,7.8,Yes
2013/11/04,07:30,0.8,0.5,0.8,0.8,0.7,0.4,0.3,north,6.9,Yes
2013/11/04,07:40,0.8,0.5,0.8,0.8,0.7,0.4,0.3,north,6.6,Yes
2013/11/04,07:50,0.8,0.5,0.8,0.8,0.7,0.4,0.3,north,7.2,Yes
2013/11/04,08:00,0.8,0.5,0.8,0.8,0.7,0.4,0.3,north,6.4,Yes
2013/11/04,08:10,0.8,0.5,0.8,0.8,0.7,0.4,0.3,north,7.3,No
2013/11/04,08:20,0.8,0.5,0.8,0.8,0.7,0.4,0.3,north,7.0,Yes
2013/11/04,08:30,0.8,0.5,0.8,0.8,0.7,0.4,0.3,north,7.0,Yes
2013/11/04,08:40,0.8,0.5,0.8,0.8,0.7,0.4,0.3,north,6.4,Yes
2013/11/04,08:50,0.8,0.5,0.8,0.8,0.7,0.4,0.3,north,6.4,Yes
2013/11/04,09:00,0.8,0.5,0.8,0.8,0.7,0.4,0.3,north,7.1,No
2013/11/04,09:10,0.8,0.5,0.8,0.8,0.7,0.4,0.3,north,7.4,No
2013/11/04,09:20,0.8,0.5,0.8,0.8,0.7,0.4,0.3,north,6.7,Yes
2013/11/04,09:30,0.8,0.5,0.8,0.8,0.7,0.4,0.3,north,7.1,Yes
2013/11/04,09:40,0.8,0.5,0.8,0.8,0.7,0.4,0.3,north,6.9,No
2013/11/04,09:50,0.8,0.5,0.8,0.8,0.7,0.4,0.3,north,7.0,No
2013/11/04,10:00,0.8,0.5,0.8,0.8,0.7,0.4,0.3,north,6.5,No
2013/11/04,10:10,0.8,0.5,0.8,0.8,0.7,0.4,0.3,north,5.3,No
2013/11/04,10:20,0.8,0.5,0.8,0.8,0.7,0.4,0.3,north,4.7,No
2013/11/04,10:30,0.8,0.5,0.8,0.8,0.7,0.4,0.3,north,4.7,No
2013/11/04,10:40,0.8,0.5,0.8,0.8,0.7,0.4,0.3,north,5.3,No
2013/11/04,10:50,0.8,0.5,0.8,0.8,0.7,0.4,0.3,north,5.1,No
2013/11/04,11:00,0.8,0.5,0.8,0.8,0.7,0.4,0.3,north,3.7,No
2013/11/04,11:10,0.8,0.5,0.8,0.8,0.7,0.4,0.3,north,4.9,Yes
2013/11/04,11:20,0.8,0.5,0.8,0.8,0.7,0.4,0.3,north,4.7,Yes
2013/11/04,11:30,0.8,0.5,0.8,0.8,0.7,0.4,0.3,north,4.2,Yes
2013/11/04,11:40,0.8,0.5,0.8,0.8,0.7,0.4,0.3,north,4.8,Yes
2013/11/04,11:50,0.8,0.5,0.8,0.8,0.7,0.4,0.3,north,5.7,Yes
2013/11/04,12:00,0.8,0.5,0.8,0.8,0.7,0.4,0.3,north,5.0,Yes
2013/11/04,12:10,0.8,0.5,0.8,0.8,0.7,0.4,0.3,north-northeast,4.7,Yes
2013/11/04,12:20,0.8,0.5,0.8,0.8,0.7,0.4,0.3,north-northeast,5.5,No
2013/11/04,12:30,0.8,0.5,0.8,0.8,0.7,0.4,0.3,north-northeast,4.5,No
2013/11/04,12:40,0.8,0.5,0.8,0.8,0.7,0.4,0.3,north-northeast,5.5,No
2013/11/04,12:50,0.8,0.5,0.8,0.8,0.7,0.4,0.3,north-northeast,4.9,No
2013/11/04,13:00,0.8,0.5,0.8,0.8,0.7,0.4,0.3,north,3.9,No
2013/11/04,13:10,0.8,0.5,0.8,0.8,0.7,0.4,0.3,north,3.8,No
2013/11/04,13:20,0.8,0.5,0.8,0.8,0.7,0.4,0.3,north,4.8,No
2013/11/04,13:30,0.8,0.5,0.8,0.8,0.7,0.4,0.3,north,4.8,No
2013/11/04,13:40,0.8,0.5,0.8,0.8,0.7,0.4,0.3,north,4.6,No
2013/11/04,13:50,0.8,0.5,0.8,0.8,0.7,0.4,0.3,north-northeast,4.6,No
2013/11/04,14:00,0.8,0.5,0.8,0.8,0.7,0.4,0.3,north-northeast,6.7,No
2013/11/04,14:10,0.8,0.5,0.8,0.8,0.7,0.4,0.3,north,5.6,No
2013/11/04,14:20,0.8,0.5,0.8,0.8,0.7,0.4,0.3,north,4.5,No
2013/11/04,14:30,0.8,0.5,0.8,0.8,0.7,0.4,0.3,north,3.8,No
2013/11/04,14:40,0.8,0.5,0.8,0.8,0.7,0.4,0.3,north,4.6,No
2013/11/04,14:50,0.8,0.5,0.8,0.8,0.7,0.4,0.3,north,4.3,No
2013/11/04,15:00,0.8,0.5,0.8,0.8,0.7,0.4,0.3,north,3.6,No
2013/11/04,15:10,0.8,0.5,0.8,0.8,0.7,0.4,0.3,north,3.8,No
2013/11/04,15:20,0.8,0.5,0.8,0.8,0.7,0.4,0.3,north,4.1,No
2013/11/04,15:30,0.8,0.5,0.8,0.8,0.7,0.4,0.3,north,2.8,No
2013/11/04,15:40,0.8,0.5,0.8,0.8,0.7,0.4,0.3,north,1.7,No
2013/11/04,15:50,0.8,0.5,0.8,0.8,0.7,0.4,0.3,north,3.3,No
2013/11/04,16:00,0.8,0.5,0.8,0.8,0.7,0.4,0.3,north-northwest,4.6,No
2013/11/04,16:10,0.8,0.5,0.8,0.8,0.7,0.4,0.3,north-northwest,4.5,No
2013/11/04,16:20,0.8,0.5,0.8,0.8,0.7,0.4,0.3,north-northwest,6.2,No
2013/11/04,16:30,0.8,0.5,0.8,0.8,0.7,0.4,0.3,north-northwest,5.6,No
2013/11/04,16:40,0.8,0.5,0.8,0.8,0.7,0.4,0.3,north-northwest,4.7,No
2013/11/04,16:50,0.8,0.5,0.8,0.8,0.7,0.4,0.3,north,4.1,No
2013/11/04,17:00,0.8,0.5,0.8,0.8,0.7,0.4,0.3,north-northwest,4.5,No
2013/11/04,17:10,0.8,0.5,0.8,0.8,0.7,0.4,0.3,north-northwest,5.5,No
2013/11/04,17:20,0.8,0.5,0.8,0.8,0.7,0.4,0.3,north-northwest,5.8,No
2013/11/04,17:30,0.8,0.5,0.8,0.8,0.7,0.4,0.3,north-northwest,6.1,No
2013/11/04,17:40,0.8,0.5,0.8,0.8,0.7,0.4,0.3,north-northwest,6.4,No
2013/11/04,17:50,0.8,0.5,0.8,0.8,0.7,0.4,0.3,north-northwest,6.4,No
2013/11/04,18:00,0.8,0.5,0.8,0.8,0.7,0.4,0.3,northwest,5.9,No
2013/11/04,18:10,0.8,0.5,0.8,0.8,0.7,0.4,0.3,north-northwest,5.8,No
2013/11/04,18:20,0.8,0.5,0.8,0.8,0.7,0.4,0.3,northwest,5.3,No
2013/11/04,18:30,0.8,0.5,0.8,0.8,0.7,0.4,0.3,northwest,5.7,No
2013/11/04,18:40,0.8,0.5,0.8,0.8,0.7,0.4,0.3,northwest,4.5,No
2013/11/04,18:50,0.8,0.5,0.8,0.8,0.7,0.4,0.3,north-northwest,4.2,No
2013/11/04,19:00,0.8,0.5,0.8,0.8,0.7,0.4,0.3,north-northwest,3.6,No
2013/11/04,19:10,0.8,0.5,0.8,0.8,0.7,0.4,0.3,north,3.1,No
2013/11/04,19:20,0.8,0.5,0.8,0.8,0.7,0.4,0.3,north-northwest,3.1,No
2013/11/04,19:30,0.8,0.5,0.8,0.8,0.7,0.4,0.3,north,2.8,No
2013/11/04,19:40,0.8,0.5,0.8,0.8,0.7,0.4,0.3,northwest,2.2,No
2013/11/04,19:50,0.8,0.5,0.8,0.8,0.7,0.4,0.3,north-northwest,3.2,No
2013/11/04,20:00,0.8,0.5,0.8,0.8,0.7,0.4,0.3,north-northwest,3.9,No
2013/11/04,20:10,0.8,0.5,0.8,0.8,0.7,0.4,0.3,north-northwest,5.0,No
2013/11/04,20:20,0.8,0.5,0.8,0.8,0.7,0.4,0.3,northwest,5.4,No
2013/11/04,20:30,0.8,0.5,0.8,0.8,0.7,0.4,0.3,north-northwest,5.5,No
2013/11/04,20:40,0.8,0.5,0.8,0.8,0.7,0.4,0.3,north-northwest,4.0,No
2013/11/04,20:50,0.8,0.5,0.8,0.8,0.7,0.4,0.3,northwest,3.6,No
2013/11/04,21:00,0.8,0.5,0.8,0.8,0.7,0.4,0.3,northwest,4.0,No
2013/11/04,21:10,0.8,0.5,0.8,0.8,0.7,0.4,0.3,west-northwest,3.3,No
2013/11/04,21:20,0.8,0.5,0.8,0.8,0.7,0.4,0.3,northwest,4.0,No
2013/11/04,21:30,0.8,0.5,0.8,0.8,0.7,0.4,0.3,west-northwest,3.9,No
2013/11/04,21:40,0.8,0.5,0.8,0.8,0.7,0.4,0.3,northwest,3.9,No
2013/11/04,21:50,0.8,0.5,0.8,0.8,0.7,0.4,0.3,northwest,3.9,No
2013/11/04,22:00,0.8,0.5,0.8,0.8,0.7,0.4,0.3,north-northwest,3.6,No
2013/11/04,22:10,0.8,0.5,0.8,0.8,0.7,0.4,0.3,north-northwest,3.3,No
2013/11/04,22:20,0.8,0.5,0.8,0.8,0.7,0.4,0.3,north-northwest,3.1,No
2013/11/04,22:30,0.8,0.5,0.8,0.8,0.7,0.4,0.3,north-northwest,2.3,No
2013/11/04,22:40,0.8,0.5,0.8,0.8,0.7,0.4,0.3,north-northwest,1.4,No
2013/11/04,22:50,0.8,0.5,0.8,0.8,0.7,0.4,0.3,north,0.7,No
2013/11/04,23:00,0.8,0.5,0.8,0.8,0.7,0.4,0.3,-,CALM,No
2013/11/04,23:10,0.8,0.5,0.8,0.8,0.7,0.4,0.3,west,1.4,No
2013/11/04,23:20,0.8,0.5,0.8,0.8,0.7,0.4,0.3,north-northwest,0.9,No
2013/11/04,23:30,0.8,0.5,0.8,0.8,0.7,0.4,0.3,northwest,1.1,No
2013/11/04,23:40,0.8,0.5,0.8,0.8,0.7,0.4,0.3,northwest,2.2,No
2013/11/04,23:50,0.8,0.5,0.8,0.8,0.7,0.4,0.3,northwest,3.6,No
